En Direct

LFST 140030Z AUTO 18002KT CAVOK 09/07 Q1009 TEMPO 4000 BR


TAF LFST 131700Z 1318/1418 18005KT 9999 SCT050 PROB40 TEMPO 1402/1405 4000 BR TEMPO 1411/1418 28015G25KT SHRA FEW030TCU

Nos Avions

7 avions disponibles et entretenus par un atelier agréé, permettant tous types de vols (formation, promenade, voyage…)

l'école de pilotage

PPL, LAPL, Vol de nuit, SEP… Toutes ces formations sont dispensées par nos instructeurs bénévoles.
Formation Théorique Mermoz via la FFA

Notre Plateforme

Nous sommes basés à l’aéroport de Strasbourg-Entzheim (LFST) en plein coeur de l’Alsace qui permet de voyager rapidement outre Rhin, mais également de profiter des paysages variés

Nos réseaux

Suivez-nous sur les réseaux sociaux